[[{"header":{"parameterUnit":"m.s-1","parameterCategory":1,"la1":30.2991,"la2":30.254,"lo1":-89.0895,"lo2":-89.0444,"dy":0.0017,"dx":0.0017,"nx":28,"ny":28,"refTime":"2026-02-17T09:00:00:Z","depth":0,"parameterNumber":2,"parameterNumberName":"U-component_of_WINDS"},"data":[0,0,0,0,0,0,0,0,0,0,0,0,0,0,0,0,0,0,0,0,0,0,0,0,0,0,0,0,0,0,0,0,0,0,0,0,0,0,0,0,0,0,0,0,0,0,0,0,0,0,0,0,0,0,0,0,0,0,-3.6049,-3.6051,0,-3.6183,-3.6184,-3.6186,-3.6187,-3.6185,-3.6183,-3.6182,-3.6322,-3.6327,-3.6332,0,0,0,0,0,0,0,0,0,0,0,0,0,-3.58,-3.5805,-3.6049,-3.6051,-3.6052,-3.6183,-3.6184,-3.6186,-3.6187,-3.6185,-3.6183,-3.6181,-3.632,-3.6326,-3.6333,0,0,0,0,0,0,0,0,0,0,0,0,0,-3.5919,-3.5806,-3.6049,-3.6068,-3.6071,-3.6182,-3.6184,-3.6187,-3.6187,-3.6185,-3.6182,-3.618,-3.6318,-3.6326,-3.6333,-3.6435,0,0,-3.6358,-3.6361,0,0,0,0,0,0,0,0,-3.5912,-3.5928,-3.6064,-3.6067,-3.6071,-3.6165,-3.6148,-3.627,-3.6188,-3.6143,-3.6181,-3.6179,-3.6272,-3.6284,-3.6314,-3.6441,-3.6447,-3.6359,-3.6363,-3.6367,-3.6369,0,0,0,0,0,0,0,-3.5904,-3.5922,-3.6102,-3.6066,-3.607,-3.6072,-3.6086,-3.6171,-3.6221,-3.6147,-3.6147,-3.6163,-3.6273,-3.6307,-3.6318,-3.6449,-3.6358,-3.6366,-3.637,-3.6374,-3.6669,-3.6672,0,0,0,0,0,0,-3.5891,-3.5915,-3.6098,-3.6106,-3.5983,-3.6079,-3.6095,-3.6138,-3.622,-3.623,-3.6165,-3.6163,-3.6294,-3.6308,-3.6323,-3.6447,-3.6367,-3.6374,-3.6379,-3.6666,-3.667,-3.6673,0,0,0,0,0,0,-3.5885,-3.5907,-3.6092,-3.6011,-3.6035,-3.6086,-3.6134,-3.6142,-3.6175,-3.6233,-3.6243,-3.619,-3.6293,-3.6311,-3.6407,-3.6452,-3.6378,-3.6385,-3.6663,-3.6667,-3.6672,-3.6697,0,0,0,0,0,0,-3.5878,-3.5905,-3.5942,-3.6012,-3.6039,-3.6173,-3.6137,-3.6146,-3.6188,-3.6186,-3.6259,-3.6268,-3.6292,-3.6395,-3.6415,-3.6462,-3.6392,-3.6659,-3.6665,-3.667,-3.6692,-3.6702,-3.671,0,0,0,0,0,-3.5869,-3.5944,-3.5944,-3.5966,-3.6086,-3.6175,-3.6191,-3.6216,-3.6192,-3.6231,-3.6269,-3.6266,-3.6445,-3.6405,-3.6427,-3.6477,-3.6656,-3.6663,-3.667,-3.6688,-3.67,-3.671,0,0,0,0,0,0,-3.5879,-3.5953,-3.5954,-3.6053,-3.6108,-3.6175,-3.6224,-3.6227,-3.6291,-3.6286,-3.6316,-3.6332,-3.6428,-3.6463,-3.6417,-3.6581,-3.6548,-3.6559,-3.6554,-3.6566,-3.6575,-3.6563,-3.6398,0,0,0,0,0,-3.5893,-3.5957,-3.602,-3.6101,-3.6129,-3.6172,-3.6212,-3.6227,-3.6285,-3.6308,-3.6353,-3.6411,-3.6481,-3.6526,-3.6593,-3.6699,-3.6716,-3.6745,-3.6754,-3.6761,-3.677,-3.683,-3.6844,-3.6696,-3.6696,-3.6696,0,0,-3.5921,-3.597,-3.6009,-3.6105,-3.6148,-3.6217,-3.6191,-3.6264,-3.6315,-3.632,-3.6412,-3.6449,-3.6516,-3.6617,-3.6664,-3.6649,-3.6815,-3.6769,-3.6774,-3.678,-3.6839,-3.6853,-3.6865,-3.67,-3.67,-3.6699,0,0,-3.6008,-3.6051,-3.6124,-3.617,-3.6237,-3.6266,-3.6284,-3.6352,-3.6376,-3.647,-3.6475,-3.6539,-3.6657,-3.6705,-3.6745,-3.6855,-3.6855,-3.6876,-3.6922,-3.6981,-3.6992,-3.7003,-3.7043,-3.7056,-3.6886,-3.6886,-3.6886,0,-3.6035,-3.6136,-3.6162,-3.6235,-3.6278,-3.6286,-3.6362,-3.6405,-3.6492,-3.6522,-3.6504,-3.6655,-3.67,-3.6814,-3.6841,-3.6874,-3.6896,-3.6866,-3.6988,-3.6999,-3.7009,-3.7048,-3.7062,-3.6888,-3.6888,-3.6887,-3.6887,0,-3.6166,-3.6237,-3.6289,-3.6371,-3.642,-3.6495,-3.6534,-3.6582,-3.6594,-3.6626,-3.6723,-3.6779,-3.6858,-3.6887,-3.69,-3.7005,-3.6993,-3.6982,-3.6948,-3.7025,-3.7062,-3.7076,-3.6891,-3.689,-3.689,-3.6889,0,0,-3.6258,-3.6357,-3.6375,-3.6414,-3.6491,-3.6547,-3.6624,-3.6701,-3.6742,-3.6803,-3.6868,-3.6971,-3.6962,-3.7007,-3.7026,-3.7078,-3.7163,-3.7061,-3.7063,-3.7077,-3.7284,-3.729,-3.7307,-3.7165,-3.7168,-3.717,-3.7278,0,-3.6352,-3.6486,-3.6514,-3.663,-3.6697,-3.6708,-3.6775,-3.6831,-3.6865,-3.6928,-3.6966,-3.7038,-3.702,-3.7048,-3.71,-3.7141,-3.7205,-3.7135,-3.7227,-3.723,-3.7208,-3.7326,-3.7332,-3.7431,-3.7292,-3.7295,-3.7296,0,-3.6478,-3.6542,-3.6665,-3.6736,-3.6765,-3.6824,-3.6899,-3.6959,-3.7025,-3.7046,-3.7099,-3.7113,-3.7196,-3.7161,-3.7276,-3.7228,-3.7268,-3.7295,-3.73,-3.7308,-3.7266,-3.7336,-3.7463,-3.7477,-3.7319,-3.7317,-3.7316,0,-3.6533,-3.665,-3.6739,-3.6772,-3.6857,-3.6899,-3.6937,-3.6999,-3.7045,-3.7112,-3.7142,-3.7218,-3.7259,-3.7319,-3.7355,-3.7326,-3.7468,-3.7435,-3.7489,-3.7488,-3.7516,-3.7513,-3.765,-3.7545,-3.7545,-3.7544,-3.7544,0,-3.6633,-3.6708,-3.6764,-3.6819,-3.6904,-3.6938,-3.7022,-3.706,-3.7117,-3.7181,-3.7197,-3.7257,-3.7301,-3.7369,-3.7398,-3.749,-3.7509,-3.7529,-3.7535,-3.7526,-3.7524,-3.7552,-3.7545,-3.7548,-3.7547,-3.7547,-3.7546,0,-3.6707,-3.6747,-3.6845,-3.6919,-3.6939,-3.6999,-3.7063,-3.7118,-3.7154,-3.7235,-3.7256,-3.7312,-3.7392,-3.7435,-3.7535,-3.7555,-3.7658,-3.7662,-3.7635,-3.7638,-3.7689,-3.7683,-3.7846,-3.787,-3.775,-3.7751,-3.7752,0,-3.6767,-3.6825,-3.6905,-3.6949,-3.6988,-3.7058,-3.7105,-3.7143,-3.7191,-3.7273,-3.7319,-3.74,-3.7466,-3.7595,-3.7646,-3.7724,-3.7729,-3.7781,-3.774,-3.773,-3.7729,-3.7724,-3.7731,-3.7787,-3.7788,-3.7789,-3.779,0,-3.687,-3.6889,-3.6955,-3.703,-3.7086,-3.7147,-3.7208,-3.7243,-3.7291,-3.7346,-3.7428,-3.748,-3.7584,-3.7665,-3.7748,-3.7789,-3.7798,-3.7803,-3.7819,-3.7809,-3.7792,-3.7802,-3.7654,-3.7798,-3.7797,-3.7797,-3.7796,-3.7796,-3.6939,-3.6991,-3.7057,-3.7132,-3.7182,-3.7239,-3.7294,-3.7338,-3.7406,-3.7493,-3.7512,-3.7599,-3.7668,-3.778,-3.7824,-3.7895,-3.7884,-3.7908,-3.7913,-3.7918,-3.792,-3.7782,-3.791,-3.791,-3.791,-3.791,-3.7909,0,-3.7042,-3.7086,-3.7154,-3.7239,-3.7299,-3.7303,-3.7371,-3.7421,-3.7497,-3.756,-3.7626,-3.7722,-3.7802,-3.7861,-3.7943,-3.7989,-3.7995,-3.8009,-3.8005,-3.8015,-3.7925,-3.7902,-3.8002,-3.8002,-3.8002,-3.8002,-3.8002,-3.8002,-3.7103,-3.7192,-3.7219,-3.7335,-3.7379,-3.7464,-3.7503,-3.7557,-3.7607,-3.7713,-3.778,-3.7818,-3.788,-3.7968,-3.8042,-3.8058,-3.8087,-3.8101,-3.8116,-3.8031,-3.8021,-3.8011,-3.799,-3.8107,-3.8107,-3.82,-3.8201,-3.8202]},{"header":{"parameterUnit":"m.s-1","parameterCategory":1,"la1":30.2991,"la2":30.254,"lo1":-89.0895,"lo2":-89.0444,"dy":0.0017,"dx":0.0017,"nx":28,"ny":28,"refTime":"2026-02-17T09:00:00:Z","depth":0,"parameterNumber":3,"parameterNumberName":"V-component_of_WINDS"},"data":[0,0,0,0,0,0,0,0,0,0,0,0,0,0,0,0,0,0,0,0,0,0,0,0,0,0,0,0,0,0,0,0,0,0,0,0,0,0,0,0,0,0,0,0,0,0,0,0,0,0,0,0,0,0,0,0,0,0,1.7855,1.7855,0,1.7868,1.7868,1.7868,1.7909,1.7909,1.791,1.7911,1.7921,1.7921,1.792,0,0,0,0,0,0,0,0,0,0,0,0,0,1.7865,1.7864,1.7855,1.7855,1.7856,1.7868,1.7868,1.7868,1.7908,1.7909,1.7911,1.7912,1.7921,1.7921,1.792,0,0,0,0,0,0,0,0,0,0,0,0,0,1.7867,1.7864,1.7855,1.7877,1.7879,1.7868,1.7868,1.7868,1.7908,1.7909,1.7911,1.7912,1.7922,1.7921,1.792,1.7887,0,0,1.7917,1.7917,0,0,0,0,0,0,0,0,1.7867,1.7867,1.7874,1.7876,1.7878,1.7888,1.7875,1.7875,1.7908,1.7897,1.7911,1.7913,1.7909,1.7909,1.7909,1.7888,1.7888,1.7917,1.7917,1.7916,1.7916,0,0,0,0,0,0,0,1.7867,1.7866,1.786,1.7874,1.7876,1.7886,1.7888,1.7875,1.7895,1.7898,1.7901,1.7902,1.791,1.7909,1.7909,1.7889,1.7917,1.7917,1.7916,1.7916,1.7844,1.7842,0,0,0,0,0,0,1.7864,1.7866,1.786,1.7861,1.7876,1.7885,1.7887,1.7883,1.7895,1.7899,1.7901,1.7904,1.791,1.791,1.791,1.7873,1.7916,1.7916,1.7915,1.7845,1.7843,1.7842,0,0,0,0,0,0,1.7864,1.7863,1.7859,1.7864,1.7864,1.7883,1.7879,1.7883,1.7882,1.7898,1.7901,1.7896,1.7911,1.7911,1.7893,1.7874,1.7915,1.7914,1.7847,1.7844,1.7843,1.78,0,0,0,0,0,0,1.7864,1.7863,1.785,1.7864,1.7864,1.7843,1.7878,1.7882,1.7881,1.7885,1.7894,1.7897,1.7912,1.7894,1.7892,1.7874,1.7914,1.7848,1.7846,1.7843,1.7803,1.7797,1.7791,0,0,0,0,0,1.7864,1.7837,1.785,1.7849,1.7849,1.7842,1.7842,1.7861,1.7879,1.7867,1.7877,1.7897,1.7877,1.7892,1.789,1.7871,1.785,1.7846,1.7843,1.7806,1.7798,1.7791,0,0,0,0,0,0,1.782,1.7839,1.7853,1.783,1.7834,1.7849,1.7834,1.7851,1.785,1.7854,1.7876,1.7878,1.7857,1.7863,1.7879,1.7841,1.7867,1.7863,1.7838,1.7831,1.7825,1.7824,1.7913,0,0,0,0,0,1.7807,1.78,1.7817,1.7795,1.7796,1.7815,1.7812,1.7826,1.7831,1.7833,1.7842,1.7845,1.784,1.7836,1.7832,1.7804,1.7807,1.779,1.7784,1.7779,1.7776,1.7763,1.7756,1.7831,1.7832,1.7832,0,0,1.7781,1.7791,1.7785,1.7786,1.7791,1.7783,1.7816,1.7805,1.7799,1.7831,1.7816,1.7822,1.7828,1.7805,1.7796,1.7809,1.7756,1.7775,1.7771,1.777,1.7759,1.7752,1.7745,1.7829,1.783,1.783,0,0,1.773,1.7737,1.7719,1.7724,1.7732,1.7745,1.7741,1.7753,1.7759,1.7744,1.7768,1.7761,1.7751,1.7755,1.7755,1.7707,1.7725,1.7705,1.7674,1.7661,1.7655,1.765,1.7633,1.7627,1.7702,1.7701,1.7701,0,1.7697,1.7686,1.7708,1.7697,1.7697,1.7727,1.771,1.7713,1.7718,1.7717,1.7732,1.7722,1.7727,1.7707,1.7696,1.7694,1.7691,1.7704,1.7654,1.7649,1.7644,1.7629,1.7623,1.7699,1.7699,1.77,1.77,0,1.7645,1.7637,1.7622,1.7629,1.7627,1.7612,1.7632,1.7628,1.7643,1.7654,1.7639,1.7647,1.7646,1.7642,1.7656,1.7624,1.7632,1.765,1.7676,1.7634,1.762,1.7615,1.7696,1.7696,1.7697,1.7698,0,0,1.7565,1.7585,1.7579,1.7583,1.7595,1.7589,1.7576,1.7576,1.7573,1.7575,1.7566,1.7558,1.7575,1.7575,1.759,1.7578,1.7541,1.7598,1.7599,1.7588,1.7508,1.7494,1.7487,1.7553,1.7552,1.7552,1.7507,0,1.7517,1.7497,1.7518,1.7494,1.7487,1.7516,1.7506,1.7511,1.7522,1.7517,1.7529,1.7523,1.7546,1.7547,1.7537,1.7548,1.7525,1.7551,1.7544,1.7544,1.7542,1.7479,1.7465,1.7423,1.7502,1.7501,1.75,0,1.7458,1.746,1.7436,1.7451,1.7449,1.7439,1.7441,1.7437,1.7444,1.7453,1.7454,1.7472,1.7461,1.7487,1.7472,1.7489,1.7487,1.7492,1.7491,1.7491,1.7519,1.7478,1.741,1.7403,1.7492,1.7492,1.7493,0,1.7403,1.74,1.7385,1.7388,1.7404,1.7397,1.7403,1.7412,1.7411,1.7413,1.7413,1.7413,1.7413,1.7413,1.7431,1.7447,1.7413,1.744,1.742,1.742,1.7411,1.7411,1.7342,1.741,1.741,1.741,1.741,0,1.7348,1.7332,1.7361,1.7352,1.7336,1.7359,1.7342,1.7351,1.7359,1.7353,1.7377,1.737,1.7395,1.739,1.7404,1.739,1.7389,1.7396,1.74,1.7394,1.7393,1.7393,1.7397,1.7408,1.7409,1.7409,1.7409,0,1.7283,1.7302,1.7289,1.7306,1.731,1.7297,1.7312,1.7304,1.7317,1.7309,1.7308,1.7327,1.7324,1.7342,1.7341,1.735,1.7329,1.7338,1.7327,1.733,1.7309,1.7311,1.7237,1.7229,1.7301,1.7301,1.73,0,1.7247,1.7235,1.7252,1.725,1.7256,1.7252,1.7252,1.7275,1.7274,1.7282,1.7274,1.7273,1.7273,1.7265,1.7279,1.7279,1.7288,1.7262,1.7288,1.7283,1.7288,1.7289,1.7288,1.7257,1.7256,1.7255,1.7254,0,1.718,1.719,1.719,1.7193,1.7193,1.7196,1.72,1.7197,1.7222,1.7219,1.7217,1.7217,1.7217,1.7216,1.7219,1.7225,1.7244,1.7246,1.7242,1.7235,1.723,1.7233,1.7313,1.7248,1.7248,1.7249,1.7249,1.7249,1.7129,1.7121,1.7132,1.7131,1.7137,1.7142,1.7136,1.7149,1.7147,1.715,1.7163,1.7158,1.7167,1.7173,1.7178,1.7174,1.7186,1.7179,1.7178,1.7176,1.7172,1.7231,1.7175,1.7175,1.7175,1.7175,1.7175,0,1.7064,1.7073,1.7072,1.7079,1.7078,1.7097,1.7104,1.7102,1.7098,1.7105,1.7105,1.7102,1.7101,1.7116,1.7117,1.7111,1.712,1.711,1.7111,1.7113,1.7161,1.7165,1.7104,1.7104,1.7104,1.7104,1.7104,1.7104,1.703,1.7018,1.703,1.7022,1.7031,1.7027,1.703,1.7034,1.704,1.7036,1.7036,1.7046,1.7056,1.7058,1.7058,1.7063,1.7062,1.705,1.7057,1.7102,1.7109,1.7116,1.712,1.7049,1.7049,1.7009,1.7008,1.7008]}]]